Weather History for Eastman, GA

Change the Weather History Date:

Thursday, May 8, 2014

  Actual Average Record
Temperature  
Mean Temperature 77 °F -  
Max Temperature 93 °F 81 °F 93 °F (2014)
Min Temperature 61 °F 58 °F 47 °F (2013)
Cooling Degree Days 12    
Growing Degree Days 27 (Base 50)    
Moisture  
Dew Point 65 °F    
Average Humidity 71    
Maximum Humidity 100    
Minimum Humidity 30    
Precipitation  
Precipitation 0.00 in - - ()
Sea Level Pressure  
Sea Level Pressure 30.19 in    
Wind  
Wind Speed 2 mph (SSW)    
Max Wind Speed 10 mph    
Max Gust Speed -    
Visibility 8 miles    
Events Fog    
Averages and records for this station are not official NWS values.
T = Trace of Precipitation, MM = Missing Value Source: NWS Daily Summary

Daily Weather History Graph

Daily Weather History Graph

Search for Another Location

Airport:

Trip Planner

Search our weather history database for the weather conditions in past years. The results will help you decide how hot, cold, wet, or windy it might be!

Date:

Astronomy

May. 08, 2014 Rise Set
Actual Time 6:40 AM EDT 8:18 PM EDT
Civil Twilight 6:13 AM EDT 8:44 PM EDT
Nautical Twilight 5:41 AM EDT 9:16 PM EDT
Astronomical Twilight 5:08 AM EDT 9:50 PM EDT
Moon 2:38 PM EDT (5/8) 2:48 AM EDT (5/8)
Length of Visible Light 14h 31m
Length of Day
13h 38m
Waxing Gibbous, 64% of the Moon is Illuminated
May 8
Waxing Gibbous
May 14
Full
May 21
Last Quarter
May 28
New
Jun 5
First Quarter

Hourly Weather History & Observations

Time (EDT) Temp. Heat Index Dew Point Humidity Pressure Visibility Wind Dir Wind Speed Gust Speed Precip Events Conditions
12:15 AM 65.1 °F - 65.1 °F 100% 30.15 in 7.0 mi Calm Calm - N/A   Clear
12:55 AM 64.2 °F - 64.2 °F 100% 30.15 in 2.5 mi Calm Calm - N/A   Clear
1:15 AM 65.3 °F - 65.3 °F 100% 30.16 in 10.0 mi Calm Calm - N/A   Clear
1:55 AM 64.4 °F - 64.4 °F 100% 30.16 in 7.0 mi Calm Calm - N/A   Clear
2:15 AM 64.0 °F - 64.0 °F 100% 30.15 in 0.5 mi Calm Calm - N/A Fog Fog
2:35 AM 63.7 °F - 63.7 °F 100% 30.15 in 1.5 mi Calm Calm - N/A   Mist
2:55 AM 62.8 °F - 62.8 °F 100% 30.14 in 7.0 mi Calm Calm - N/A   Clear
3:15 AM 63.3 °F - 63.3 °F 100% 30.14 in 5.0 mi Calm Calm - N/A   Clear
3:55 AM 63.0 °F - 63.0 °F 100% 30.15 in 5.0 mi Calm Calm - N/A   Clear
4:15 AM 61.9 °F - 61.9 °F 100% 30.16 in 10.0 mi Calm Calm - N/A   Clear
4:35 AM 62.4 °F - 62.4 °F 100% 30.16 in 4.0 mi Calm Calm - N/A   Clear
4:55 AM 63.3 °F - 63.3 °F 100% 30.17 in 7.0 mi Calm Calm - N/A   Clear
5:15 AM 63.5 °F - 63.5 °F 100% 30.17 in 1.0 mi Calm Calm - N/A   Mist
5:35 AM 62.4 °F - 62.4 °F 100% 30.18 in 1.5 mi Calm Calm - N/A   Mist
5:55 AM 62.1 °F - 62.1 °F 100% 30.18 in 7.0 mi Calm Calm - N/A   Clear
6:15 AM 61.0 °F - 61.0 °F 100% 30.18 in 3.0 mi Calm Calm - N/A   Clear
6:35 AM 61.0 °F - 61.0 °F 100% 30.19 in 5.0 mi Calm Calm - N/A   Clear
6:55 AM 61.5 °F - 61.5 °F 100% 30.19 in 5.0 mi Calm Calm - N/A   Clear
7:15 AM 61.7 °F - 61.7 °F 100% 30.20 in 4.0 mi Calm Calm - N/A   Clear
7:35 AM 62.1 °F - 62.1 °F 100% 30.21 in 7.0 mi Calm Calm - N/A   Clear
7:55 AM 65.1 °F - 65.1 °F 100% 30.21 in 7.0 mi Calm Calm - N/A   Clear
8:15 AM 68.4 °F - 68.4 °F 100% 30.22 in 10.0 mi Calm Calm - N/A   Clear
8:35 AM 70.9 °F - 70.5 °F 99% 30.23 in 10.0 mi SSW 3.5 mph - N/A   Clear
8:55 AM 74.7 °F - 71.1 °F 88% 30.24 in 10.0 mi SSW 6.9 mph - N/A   Clear
9:15 AM 77.2 °F - 70.7 °F 80% 30.24 in 10.0 mi SSW 4.6 mph - N/A   Clear
9:35 AM 79.5 °F - 70.7 °F 74% 30.25 in 10.0 mi SW 4.6 mph - N/A   Clear
9:55 AM 80.8 °F 84.6 °F 70.9 °F 72% 30.25 in 10.0 mi SSW 8.1 mph - N/A   Clear
10:15 AM 82.4 °F 86.7 °F 71.1 °F 68% 30.25 in 10.0 mi SW 4.6 mph - N/A   Clear
10:35 AM 83.8 °F 88.6 °F 70.9 °F 65% 30.25 in 10.0 mi South 8.1 mph - N/A   Clear
10:55 AM 84.4 °F 89.0 °F 70.7 °F 63% 30.25 in 10.0 mi SW 6.9 mph - N/A   Clear
11:15 AM 85.6 °F 90.8 °F 70.7 °F 61% 30.25 in 10.0 mi SSW 5.8 mph - N/A   Clear
11:35 AM 85.8 °F 90.8 °F 70.5 °F 60% 30.24 in 10.0 mi SW 5.8 mph - N/A   Clear
11:55 AM 86.7 °F 91.4 °F 70.0 °F 57% 30.23 in 10.0 mi SW 4.6 mph - N/A   Clear
12:15 PM 87.8 °F 91.8 °F 68.5 °F 53% 30.23 in 10.0 mi South 10.4 mph - N/A   Clear
12:35 PM 88.2 °F 92.1 °F 68.4 °F 52% 30.23 in 10.0 mi WSW 5.8 mph - N/A   Clear
12:55 PM 89.1 °F 92.9 °F 68.2 °F 50% 30.23 in 10.0 mi SW 5.8 mph - N/A   Scattered Clouds
1:15 PM 88.7 °F 91.1 °F 66.4 °F 47% 30.23 in 10.0 mi WSW 3.5 mph - N/A   Scattered Clouds
1:35 PM 90.3 °F 92.2 °F 64.8 °F 43% 30.23 in 10.0 mi South 9.2 mph - N/A   Scattered Clouds
1:55 PM 90.9 °F 90.6 °F 60.4 °F 36% 30.21 in 10.0 mi SSE 5.8 mph - N/A   Scattered Clouds
2:15 PM 91.8 °F 91.2 °F 59.7 °F 34% 30.21 in 10.0 mi South 5.8 mph - N/A   Clear
2:35 PM 91.6 °F 91.6 °F 60.8 °F 36% 30.20 in 10.0 mi SW 5.8 mph - N/A   Clear
2:55 PM 92.3 °F 91.6 °F 59.2 °F 33% 30.20 in 10.0 mi South 10.4 mph - N/A   Clear
3:15 PM 92.3 °F 91.6 °F 59.4 °F 33% 30.18 in 10.0 mi SSE 3.5 mph - N/A   Clear
3:35 PM 93.0 °F 91.7 °F 57.7 °F 30% 30.18 in 10.0 mi South 6.9 mph - N/A   Clear
3:55 PM 92.7 °F 91.5 °F 58.1 °F 31% 30.17 in 10.0 mi South 5.8 mph - N/A   Clear
4:15 PM 93.2 °F 92.2 °F 57.9 °F 31% 30.16 in 10.0 mi SSE 8.1 mph - N/A   Clear
4:35 PM 93.4 °F 92.5 °F 58.3 °F 31% 30.15 in 10.0 mi South 5.8 mph - N/A   Clear
4:55 PM 93.0 °F 91.7 °F 57.7 °F 30% 30.15 in 10.0 mi South 5.8 mph - N/A   Clear
5:15 PM 93.0 °F 92.0 °F 58.1 °F 31% 30.15 in 10.0 mi SSW 8.1 mph - N/A   Clear
5:35 PM 92.7 °F 91.5 °F 57.9 °F 31% 30.15 in 10.0 mi South 6.9 mph - N/A   Clear
5:55 PM 91.8 °F 90.6 °F 58.1 °F 32% 30.15 in 10.0 mi SSW 5.8 mph - N/A   Clear
6:15 PM 91.4 °F 90.4 °F 58.6 °F 33% 30.15 in 10.0 mi South 5.8 mph - N/A   Clear
6:35 PM 91.0 °F 90.2 °F 59.2 °F 34% 30.14 in 10.0 mi South 4.6 mph - N/A   Clear
6:55 PM 90.1 °F 89.9 °F 60.4 °F 37% 30.15 in 10.0 mi South 4.6 mph - N/A   Scattered Clouds
7:15 PM 88.0 °F 89.0 °F 63.5 °F 44% 30.15 in 10.0 mi South 3.5 mph - N/A   Clear
7:35 PM 86.4 °F 88.1 °F 65.1 °F 49% 30.15 in 10.0 mi Calm Calm - N/A   Clear
7:55 PM 82.4 °F 86.3 °F 69.8 °F 66% 30.16 in 10.0 mi Calm Calm - N/A   Clear
8:15 PM 79.3 °F - 70.5 °F 74% 30.17 in 10.0 mi Calm Calm - N/A   Clear
8:35 PM 77.5 °F - 69.1 °F 75% 30.17 in 10.0 mi Calm Calm - N/A   Clear
8:55 PM 77.0 °F - 69.6 °F 78% 30.17 in 10.0 mi Calm Calm - N/A   Clear
9:15 PM 74.5 °F - 68.9 °F 83% 30.17 in 10.0 mi Calm Calm - N/A   Clear
9:35 PM 73.2 °F - 69.1 °F 87% 30.17 in 10.0 mi Calm Calm - N/A   Clear
9:55 PM 73.6 °F - 69.6 °F 87% 30.18 in 10.0 mi Calm Calm - N/A   Clear
10:15 PM 71.4 °F - 70.2 °F 96% 30.18 in 10.0 mi Calm Calm - N/A   Clear
10:35 PM 70.9 °F - 69.8 °F 96% 30.18 in 10.0 mi Calm Calm - N/A   Clear
11:15 PM 73.4 °F - 69.6 °F 88% 30.18 in 10.0 mi SE 5.8 mph - N/A   Clear
11:35 PM 76.1 °F - 67.5 °F 74% 30.18 in 10.0 mi SSE 5.8 mph - N/A   Clear